TimeGMT,TemperatureF,Dew PointF,Humidity,Sea Level PressureIn,VisibilityMPH,Wind Direction,Wind SpeedMPH,Gust SpeedMPH,PrecipitationIn,Events,Conditions,WindDirDegrees,DateUTC
12:20 AM,39.2,35.6,87,30.06,-9999.0,WSW,8.1,-,N/A,,Clear,250,2013-01-02 00:20:00
12:50 AM,39.2,35.6,87,30.06,-9999.0,WSW,9.2,-,N/A,,Clear,250,2013-01-02 00:50:00
1:20 AM,37.4,35.6,93,30.09,-9999.0,SW,5.8,-,N/A,,Clear,220,2013-01-02 01:20:00
1:50 AM,37.4,33.8,87,30.09,6.2,WSW,3.5,-,N/A,,Unknown,250,2013-01-02 01:50:00
2:20 AM,37.4,33.8,87,30.12,6.2,South,4.6,-,N/A,,Unknown,190,2013-01-02 02:20:00
2:50 AM,36,35,92,30.13,18,SW,4.6,,,,Partly Cloudy,220,2013-01-02 02:50:00
2:50 AM,37.4,33.8,87,30.12,6.2,SSW,4.6,-,N/A,,Unknown,200,2013-01-02 02:50:00
3:20 AM,37.4,35.6,93,30.12,-9999.0,SSW,4.6,-,N/A,,Clear,200,2013-01-02 03:20:00
3:50 AM,37.4,35.6,93,30.12,-9999.0,SSW,5.8,-,N/A,,Clear,200,2013-01-02 03:50:00
4:20 AM,37.4,33.8,87,30.15,-9999.0,South,4.6,-,N/A,,Clear,190,2013-01-02 04:20:00
4:50 AM,37.4,33.8,87,30.15,-9999.0,South,3.5,-,N/A,,Clear,180,2013-01-02 04:50:00
5:20 AM,35.6,33.8,93,30.18,-9999.0,Variable,2.3,-,N/A,,Clear,0,2013-01-02 05:20:00
5:50 AM,38,36,92,30.19,19,WSW,5.8,,,,,250,2013-01-02 05:50:00
5:50 AM,37.4,35.6,93,30.18,-9999.0,Variable,3.5,-,N/A,,Clear,0,2013-01-02 05:50:00
6:20 AM,39.2,37.4,93,30.18,-9999.0,WSW,8.1,-,N/A,,Clear,250,2013-01-02 06:20:00
6:50 AM,39.2,37.4,93,30.18,-9999.0,SW,4.6,-,N/A,,Clear,220,2013-01-02 06:50:00
7:20 AM,41.0,37.4,87,30.21,-9999.0,WSW,9.2,-,N/A,,Clear,250,2013-01-02 07:20:00
7:50 AM,41.0,37.4,87,30.21,-9999.0,WSW,9.2,-,N/A,,Clear,250,2013-01-02 07:50:00
8:20 AM,42.8,37.4,81,30.21,-9999.0,WSW,9.2,-,N/A,,Clear,250,2013-01-02 08:20:00
8:50 AM,42,39,84,30.25,18,West,8.1,,,,Overcast,260,2013-01-02 08:50:00
8:50 AM,42.8,39.2,87,30.24,-9999.0,West,9.2,-,N/A,,Clear,270,2013-01-02 08:50:00
9:20 AM,42.8,39.2,87,30.24,-9999.0,West,6.9,-,N/A,,Clear,260,2013-01-02 09:20:00
9:50 AM,44.6,39.2,81,30.24,-9999.0,WSW,8.1,-,N/A,,Clear,240,2013-01-02 09:50:00
10:20 AM,44.6,39.2,81,30.24,6.2,WSW,10.4,-,N/A,,Partly Cloudy,240,2013-01-02 10:20:00
10:50 AM,44.6,39.2,81,30.24,6.2,SW,6.9,-,N/A,,Partly Cloudy,230,2013-01-02 10:50:00
11:20 AM,44.6,39.2,81,30.27,6.2,SSW,6.9,-,N/A,,Mostly Cloudy,210,2013-01-02 11:20:00
11:50 AM,46,41,77,30.25,14,SW,8.1,,,,Overcast,220,2013-01-02 11:50:00
11:50 AM,46.4,41.0,81,30.24,6.2,SW,8.1,-,N/A,,Mostly Cloudy,220,2013-01-02 11:50:00
12:20 PM,46.4,41.0,81,30.24,6.2,SW,9.2,-,N/A,,Scattered Clouds,220,2013-01-02 12:20:00
12:50 PM,46.4,42.8,87,30.24,6.2,SW,10.4,-,N/A,,Mostly Cloudy,230,2013-01-02 12:50:00
1:20 PM,46.4,42.8,87,30.24,3.7,SSW,9.2,-,N/A,Rain,Rain,210,2013-01-02 13:20:00
1:50 PM,46.4,44.6,93,30.24,6.2,SW,10.4,-,N/A,Rain,Light Rain,220,2013-01-02 13:50:00
2:20 PM,46.4,44.6,93,30.24,6.2,SW,11.5,-,N/A,,Mostly Cloudy,220,2013-01-02 14:20:00
2:50 PM,46.4,44.6,93,30.24,3.7,SW,9.2,-,N/A,Rain,Light Rain,220,2013-01-02 14:50:00
3:00 PM,47,45,92,,,SSW,10.4,,,,,210,2013-01-02 15:00:00
3:20 PM,46.4,44.6,93,30.24,6.2,SW,8.1,-,N/A,,Mostly Cloudy,220,2013-01-02 15:20:00
3:50 PM,46.4,44.6,93,30.24,6.2,SW,9.2,-,N/A,,Mostly Cloudy,220,2013-01-02 15:50:00
4:20 PM,48.2,46.4,93,30.24,6.2,WSW,11.5,-,N/A,,Mostly Cloudy,240,2013-01-02 16:20:00
4:50 PM,50.0,46.4,87,30.24,6.2,WSW,13.8,-,N/A,,Mostly Cloudy,240,2013-01-02 16:50:00
5:20 PM,50.0,48.2,94,30.24,6.2,WSW,13.8,-,N/A,,Mostly Cloudy,250,2013-01-02 17:20:00
5:50 PM,50,48,92,30.25,14,WSW,15.0,,,,Overcast,250,2013-01-02 17:50:00
5:50 PM,50.0,48.2,94,30.24,6.2,WSW,13.8,-,N/A,,Mostly Cloudy,250,2013-01-02 17:50:00
6:20 PM,50.0,48.2,94,30.24,6.2,West,13.8,-,N/A,,Mostly Cloudy,260,2013-01-02 18:20:00
6:50 PM,50.0,48.2,94,30.24,6.2,West,13.8,-,N/A,,Mostly Cloudy,270,2013-01-02 18:50:00
7:20 PM,51.8,50.0,94,30.27,6.2,WSW,13.8,-,N/A,,Mostly Cloudy,250,2013-01-02 19:20:00
7:50 PM,51.8,48.2,88,30.27,6.2,WSW,11.5,-,N/A,,Mostly Cloudy,240,2013-01-02 19:50:00
8:20 PM,51.8,48.2,88,30.27,6.2,WSW,13.8,-,N/A,,Mostly Cloudy,250,2013-01-02 20:20:00
8:50 PM,52,49,87,30.29,12,West,13.8,,,,Overcast,260,2013-01-02 20:50:00
8:50 PM,51.8,48.2,88,30.27,6.2,West,13.8,-,N/A,,Mostly Cloudy,270,2013-01-02 20:50:00
9:20 PM,51.8,48.2,88,30.30,6.2,West,17.3,-,N/A,,Mostly Cloudy,270,2013-01-02 21:20:00
9:50 PM,51.8,48.2,88,30.30,6.2,West,13.8,-,N/A,,Mostly Cloudy,270,2013-01-02 21:50:00
10:20 PM,51.8,48.2,88,30.30,6.2,West,15.0,-,N/A,,Mostly Cloudy,270,2013-01-02 22:20:00
10:50 PM,51.8,48.2,88,30.30,6.2,West,11.5,-,N/A,,Mostly Cloudy,270,2013-01-02 22:50:00
11:20 PM,51.8,48.2,88,30.33,6.2,West,10.4,-,N/A,,Mostly Cloudy,270,2013-01-02 23:20:00
11:50 PM,51,49,90,30.35,10,West,12.7,,,,Overcast,260,2013-01-02 23:50:00
11:50 PM,51.8,48.2,88,30.33,6.2,West,13.8,-,N/A,,Mostly Cloudy,270,2013-01-02 23:50:00